Tracking 31027 objects as of 19-Jul-2025
HD Live streaming from Space Station
objects crossing your sky now

USA 173 DEB

Track USA 173 DEB now!
10-day predictions


NORAD ID: 28097
Int'l Code: 2003-054C
Perigee: 693.5 km
Apogee: 1,530.5 km
Inclination: 63.4 °
Period: 107.4 minutes
Semi major axis: 7482 km
RCS: Unknown
Launch date: December 2, 2003
Source: United States (US)
Launch site: AIR FORCE WESTERN TEST RANGE (AFWTR)

Note: This is SATELLITE DEBRIS
Your satellite tracking list
FLOCK 4Q 34
Track 1 satellite(s)




NASA's NSSDC Master Catalog

Two Line Element Set (TLE):
1 28097U 03054C   25155.89623011 0.00000160  00000-0  11354-3 0    03
2 28097  63.4071  75.9158 0559273   4.8778 355.1222 13.41193394    07
Source of the keplerian elements: McCants